Location: George Washington National Forest Helicopter Landing Site
(38.6463°N, 79.0851°W)
Time: 11:22:42
(UTC-04:00)

Tiros 1 despin weight - Pass Details

Date: 21 August 2019
Orbit: 594 x 642 km, 48.2° (Epoch: 17 September)

Event Time Altitude Azimuth Distance (km) Brightness Sun altitude
Rises 07:37:15 0° 298° (WNW) 2,898 ? 10.9°
Reaches altitude 10° 07:39:37 10° 293° (WNW) 1,997 ? 11.4°
Maximum altitude 07:44:02 47° 220° (SW) 834 ? 12.3°
Drops below altitude 10° 07:48:28 10° 146° (SSE) 2,011 ? 13.1°
Sets 07:50:52 0° 141° (SE) 2,921 ? 13.6°
